Location: Anumalkud?ru
(16.4847°N, 80.6636°E)
Time: 10:51:06
(UTC+00:00)

Cosmos 2074 Rocket - Pass Details

Date: 11 April 2026
Orbit: 967 x 984 km, 82.9° (Epoch: 12 May)

Event Time Altitude Azimuth Distance (km) Brightness Sun altitude
Rises 13:51:30 0° 182° (S) 3,645 6.9 -14.8°
Reaches altitude 10° 13:53:59 10° 182° (S) 2,700 6.2 -15.4°
Maximum altitude 14:00:11 87° 94° (E) 973 3.9 -16.8°
Drops below altitude 10° 14:06:24 10° 5° (N) 2,713 6.4 -18.3°
Sets 14:08:55 0° 5° (N) 3,663 7.1 -18.9°
